Location: Newark
(49.0000°N, 1.1667°E)
Time: 23:45:38
(UTC+00:00)

Envisat - Visible Passes

Search period start: 13 October 2019 00:00
Search period end: 23 October 2019 00:00
Orbit: 764 x 766 km, 98.1° (Epoch: 13 October)

Date Brightness Start Highest point End Pass type
(mag) Time Alt. Az. Time Alt. Az. Time Alt. Az.
13 Oct 6.3 05:35:40 10° NE 05:38:38 15° E 05:41:36 10° ESE visible
13 Oct 4.4 18:32:08 10° SSW 18:36:55 42° W 18:41:46 10° NNW visible
14 Oct 3.1 17:54:57 10° SSE 18:00:03 85° WSW 18:05:11 10° NNW visible
14 Oct 6.1 19:37:42 10° WSW 19:39:52 13° W 19:42:02 10° WNW visible
15 Oct 5.3 18:58:27 10° SSW 19:02:38 26° W 19:06:51 10° NW visible
16 Oct 6.5 05:25:09 10° ENE 05:27:13 12° E 05:29:16 10° ESE visible
16 Oct 3.9 18:20:40 10° S 18:25:36 52° W 18:30:36 10° NNW visible
17 Oct 3.0 17:43:43 10° SSE 17:48:47 79° ENE 17:53:54 10° NNW visible
17 Oct 6.0 19:25:25 10° SW 19:28:26 16° W 19:31:29 10° NW visible
18 Oct 4.9 18:46:46 10° SSW 18:51:16 31° W 18:55:49 10° NNW visible
19 Oct 3.5 18:09:17 10° S 18:14:18 64° WSW 18:19:23 10° NNW visible
20 Oct 3.0 17:32:32 10° SSE 17:37:33 65° ENE 17:42:35 10° N visible
20 Oct 5.7 19:13:25 10° SW 19:17:02 19° W 19:20:40 10° NW visible
21 Oct 6.1 05:38:26 10° NE 05:41:40 17° E 05:44:53 10° SE visible
21 Oct 4.5 18:35:12 10° SSW 18:39:56 38° W 18:44:41 10° NNW visible
22 Oct 3.2 17:57:57 10° S 18:03:01 79° WSW 18:08:08 10° NNW visible
22 Oct 6.2 19:41:14 10° WSW 19:42:54 11° W 19:44:34 10° WNW visible
